This is the latest recevied weather packets stored in our database for station/object SP6RGZ-1. If no packets are shown the sender has not sent any weather packets the latest 10 day(s).
| Time | Temp. | Humidity | Pressure | Rain* | Wind** | Luminosity | Snow |
|---|---|---|---|---|---|---|---|
| 1777919402 | 22.78° C | 47% | 991.8 hPa | - | - | - | - |
| 1777918502 | 23.33° C | 45% | 991.7 hPa | - | - | - | - |
| 1777917602 | 23.89° C | 42% | 991.6 hPa | - | - | - | - |
| 1777916703 | 24.44° C | 41% | 991.5 hPa | - | - | - | - |
| 1777915802 | 25° C | 40% | 991.6 hPa | - | - | - | - |
| 1777914902 | 25° C | 39% | 991.6 hPa | - | - | - | - |
| 1777914003 | 25.56° C | 38% | 991.7 hPa | - | - | - | - |
| 1777913102 | 26.11° C | 37% | 991.6 hPa | - | - | - | - |
| 1777912202 | 26.67° C | 36% | 991.6 hPa | - | - | - | - |
| 1777911302 | 27.78° C | 36% | 991.6 hPa | - | - | - | - |
| 1777910402 | 27.78° C | 35% | 991.6 hPa | - | - | - | - |
| 1777909502 | 28.33° C | 35% | 991.6 hPa | - | - | - | - |
| 1777908603 | 28.89° C | 34% | 991.7 hPa | - | - | - | - |
| 1777907703 | 29.44° C | 34% | 991.7 hPa | - | - | - | - |
| 1777906802 | 29.44° C | 33% | 991.7 hPa | - | - | - | - |
| 1777905902 | 29.44° C | 31% | 991.9 hPa | - | - | - | - |
| 1777905002 | 29.44° C | 33% | 992.1 hPa | - | - | - | - |
| 1777904102 | 28.33° C | 33% | 992.1 hPa | - | - | - | - |
| 1777903202 | 28.89° C | 34% | 992.2 hPa | - | - | - | - |
| 1777902302 | 28.33° C | 35% | 992.3 hPa | - | - | - | - |
| 1777901402 | 28.33° C | 34% | 992.4 hPa | - | - | - | - |
| 1777900502 | 28.33° C | 34% | 992.5 hPa | - | - | - | - |
| 1777899602 | 28.33° C | 34% | 992.6 hPa | - | - | - | - |
| 1777898702 | 28.33° C | 34% | 992.8 hPa | - | - | - | - |
| 1777897802 | 28.33° C | 34% | 992.9 hPa | - | - | - | - |
* Rain since midnight (hover to see other rain measurements)
** Current wind speed in m/s (hover to see current wind gust speed)